Lake Tahoe Weather Center

Moon Phase Calendar



Lake Tahoe Water Level
Online Cameras

 


      

Current Conditions in Tahoma
10/6/2022 2:45:02 AM

49°F
Feels Like 49
Clear
Humidity
40%
Pressure
30.3"
Wind
1 mph (E)
Dew Point
26°F
UV Index
0/10 (Low)
Visibility
6 mi

Hourly Forecast

Date & Time Thu, Oct 6
2:00 AM
Thu, Oct 6
3:00 AM
Thu, Oct 6
4:00 AM
Thu, Oct 6
5:00 AM
Thu, Oct 6
6:00 AM
Thu, Oct 6
7:00 AM
Thu, Oct 6
8:00 AM
Thu, Oct 6
9:00 AM
Thu, Oct 6
10:00 AM
Thu, Oct 6
11:00 AM
Thu, Oct 6
12:00 PM
Thu, Oct 6
1:00 PM
Thu, Oct 6
2:00 PM
Thu, Oct 6
3:00 PM
Thu, Oct 6
4:00 PM
Thu, Oct 6
5:00 PM
Thu, Oct 6
6:00 PM
Thu, Oct 6
7:00 PM
Thu, Oct 6
8:00 PM
Thu, Oct 6
9:00 PM
Thu, Oct 6
10:00 PM
Thu, Oct 6
11:00 PM
Fri, Oct 7
12:00 AM
Fri, Oct 7
1:00 AM
Fri, Oct 7
2:00 AM
Fri, Oct 7
3:00 AM
Fri, Oct 7
4:00 AM
Fri, Oct 7
5:00 AM
Fri, Oct 7
6:00 AM
Fri, Oct 7
7:00 AM
Fri, Oct 7
8:00 AM
Fri, Oct 7
9:00 AM
Fri, Oct 7
10:00 AM
Fri, Oct 7
11:00 AM
Fri, Oct 7
12:00 PM
Fri, Oct 7
1:00 PM
Fri, Oct 7
2:00 PM
Fri, Oct 7
3:00 PM
Fri, Oct 7
4:00 PM
Fri, Oct 7
5:00 PM
Fri, Oct 7
6:00 PM
Fri, Oct 7
7:00 PM
Fri, Oct 7
8:00 PM
Fri, Oct 7
9:00 PM
Fri, Oct 7
10:00 PM
Fri, Oct 7
11:00 PM
Sat, Oct 8
12:00 AM
Sat, Oct 8
1:00 AM
Condition
Clear

Clear

Clear

Clear

Clear

Clear

Clear

Clear

Clear

Clear

Clear

Clear

Clear

Clear

Clear

Clear

Clear

Clear

Clear

Clear

Clear

Clear

Clear

Clear

Clear

Clear

Clear

Clear

Clear

Clear

Clear

Clear

Clear

Clear

Clear

Clear

Clear

Clear

Clear

Clear

Clouds

Clouds

Clouds

Clear

Clear

Clear

Clear

Clear
Temperature 50°F49°F50°F50°F51°F51°F55°F60°F63°F65°F67°F68°F69°F70°F70°F68°F64°F58°F56°F55°F55°F54°F54°F54°F54°F53°F53°F53°F53°F52°F56°F61°F64°F66°F68°F69°F69°F70°F70°F70°F64°F58°F56°F55°F55°F55°F54°F54°F
Feels Like 50°F49°F50°F47°F47°F48°F52°F57°F60°F63°F65°F66°F67°F68°F68°F66°F61°F55°F53°F52°F52°F51°F51°F51°F51°F50°F50°F50°F50°F50°F53°F58°F62°F64°F65°F66°F67°F67°F68°F67°F62°F56°F54°F53°F52°F52°F51°F51°F
Cloudiness 0%0%0%0%0%0%0%0%0%0%0%0%0%0%0%0%0%0%0%0%0%0%0%0%0%0%0%0%0%0%0%0%0%0%0%0%0%0%3%9%30%16%11%8%7%6%0%0%
Visibility 6 mi6 mi6 mi6 mi6 mi6 mi6 mi6 mi6 mi6 mi6 mi6 mi6 mi6 mi6 mi6 mi6 mi6 mi6 mi6 mi6 mi6 mi6 mi6 mi6 mi6 mi6 mi6 mi6 mi6 mi6 mi6 mi6 mi6 mi6 mi6 mi6 mi6 mi6 mi6 mi6 mi6 mi6 mi6 mi6 mi6 mi6 mi6 mi
Precipitation 0%0%0%0%0%0%0%0%0%0%0%0%0%0%0%0%0%0%0%0%0%0%0%0%0%0%0%0%0%0%0%0%0%0%0%0%0%0%0%0%0%0%0%0%0%0%0%0%
Humidity 42%40%42%44%46%48%43%37%33%30%28%27%27%25%24%25%31%36%39%40%40%40%41%41%41%42%45%46%47%47%42%36%32%29%27%26%25%25%24%26%32%38%39%40%40%40%41%41%
Dew Point 28°F26°F28°F29°F31°F32°F32°F31°F31°F31°F31°F31°F32°F31°F30°F30°F31°F30°F30°F30°F29°F29°F29°F29°F29°F29°F31°F31°F31°F31°F32°F32°F31°F31°F31°F30°F30°F30°F30°F31°F33°F31°F30°F30°F30°F30°F30°F30°F
Pressure 30.27"30.3"30.27"30.24"30.24"30.21"30.18"30.18"30.15"30.15"30.12"30.12"30.09"30.06"30.06"30.06"30.09"30.15"30.18"30.18"30.21"30.21"30.21"30.21"30.21"30.18"30.18"30.21"30.21"30.21"30.24"30.21"30.18"30.18"30.15"30.12"30.09"30.09"30.06"30.06"30.09"30.15"30.18"30.21"30.21"30.21"30.21"30.18"
Wind Speed 2 mph2 mph1.9 mph1.7 mph2.3 mph2.8 mph2.9 mph2.6 mph2.5 mph2.3 mph2.2 mph2.2 mph1.1 mph5.8 mph10 mph9.8 mph5.7 mph5.3 mph4.5 mph3.6 mph2.9 mph2.6 mph2.4 mph2.3 mph2 mph1.9 mph1.9 mph1.7 mph1.9 mph2.6 mph2.4 mph2.1 mph2.8 mph2.9 mph3.1 mph3.5 mph3.9 mph3.1 mph2 mph6.8 mph6.1 mph4.5 mph4.1 mph3.1 mph2.8 mph2.8 mph2.5 mph2.2 mph
Wind
Direction
176°
S
183°
S
182°
S
168°
SSE
161°
SSE
170°
S
170°
S
132°
SE
107°
ESE
96°
E
78°
ENE
53°
NE
336°
NNW
263°
W
262°
W
261°
W
263°
W
264°
W
257°
WSW
249°
WSW
241°
WSW
243°
WSW
238°
WSW
232°
SW
230°
SW
224°
SW
215°
SW
194°
SSW
180°
S
181°
S
180°
S
134°
SE
103°
ESE
91°
E
80°
E
70°
ENE
64°
ENE
69°
ENE
275°
W
276°
W
273°
W
248°
WSW
247°
WSW
248°
WSW
247°
WSW
241°
WSW
233°
SW
233°
SW

Daily Forecast

Date High Low Precip. Humidity
Today
Oct 6

Clear
70 °F
49 °F
0%
28%
Friday
Oct 7

Clear
70 °F
52 °F
0%
27%
Saturday
Oct 8

Clear
70 °F
53 °F
0%
29%
Sunday
Oct 9

Clear
69 °F
52 °F
0%
29%
Monday
Oct 10

Clouds
64 °F
50 °F
0%
33%
Tuesday
Oct 11

Clear
65 °F
49 °F
0%
35%
Wednesday
Oct 12

Clear
63 °F
48 °F
0%
35%
Thursday
Oct 13

Clear
63 °F
46 °F
0%
32%
Friday
Oct 14

Clear
64 °F
47 °F
0%
33%
Saturday
Oct 15

Clear
66 °F
48 °F
0%
27%
Sunday
Oct 16

Clear
66 °F
48 °F
0%
26%
Monday
Oct 17

Clear
66 °F
49 °F
5%
25%
Tuesday
Oct 18

Clouds
63 °F
47 °F
2%
30%
Wednesday
Oct 19

Clouds
65 °F
47 °F
3%
30%
Thursday
Oct 20

Clear
65 °F
48 °F
0%
31%
Friday
Oct 21

Clouds
65 °F
49 °F
0%
29%

Temperature 8-14 Day Outlook



Precipitation 8-14 Day Outlook






About Us
Contact Us
Site Map
Search Site
Advertise With Us
   
Tahoe.USLakes.info
THE LAKE TAHOE WEBSITE

Copyright 2022, Lakes Online
Privacy    |    Legal